Location: Oberwangen
(47.4286°N, 8.9679°E)
Time: 06:55:49
(UTC+00:00)

Cosmos 1953 Rocket - Pass Details

Date: 20 June 2021
Orbit: 604 x 634 km, 82.5° (Epoch: 28 July)

Event Time Altitude Azimuth Distance (km) Brightness Sun altitude
Exits shadow 23:50:41 40° 158° (SSE) 918 4.0 -18.9°
Maximum altitude 23:52:05 62° 95° (E) 699 3.7 -18.9°
Drops below altitude 10° 23:56:27 10° 16° (NNE) 2,002 7.4 -18.8°
Sets 23:58:43 0° 13° (NNE) 2,918 8.7 -18.7°
